Melton West, Australia

4:46 PM AEDT on October 19, 2017 (GMT +1100)
Melton West

Weather History for 94866 - November, 2013

Change the Weather History Date:

Wednesday, November 6, 2013

  Actual Average Record
Temperature  
Mean Temperature 68 °F -  
Max Temperature 85 °F 69 °F - ()
Min Temperature 50 °F 49 °F - ()
Cooling Degree Days 2    
Growing Degree Days 18 (Base 50)    
Moisture  
Dew Point 39 °F    
Average Humidity 35    
Maximum Humidity 82    
Minimum Humidity 7    
Precipitation  
Precipitation 0.00 in 0.08 in - ()
Sea Level Pressure  
Sea Level Pressure 30.00 in    
Wind  
Wind Speed 14 mph ()    
Max Wind Speed 24 mph    
Max Gust Speed 36 mph    
Visibility 19.0 miles    
Events      
T = Trace of Precipitation, MM = Missing Value Source: Averaged Metar Reports

Daily Weather History Graph

Daily Weather History Graph

Search for Another Location

Airport or City:

Trip Planner

Search our weather history database for the weather conditions in past years. The results will help you decide how hot, cold, wet, or windy it might be!

Date:

Astronomy

Nov. 06, 2013 Rise Set
Actual Time 6:08 AM AEDT 8:00 PM AEDT
Civil Twilight 5:40 AM AEDT 8:28 PM AEDT
Nautical Twilight 5:06 AM AEDT 9:03 PM AEDT
Astronomical Twilight 4:29 AM AEDT 9:40 PM AEDT
Moon 8:13 AM AEDT (11/6) 10:53 PM AEDT (11/6)
Length of Visible Light 14h 48m
Length of Day
13h 51m
Waxing Crescent, 8% of the Moon is Illuminated
Nov 6
Waxing Crescent
Nov 10
First Quarter
Nov 18
Full
Nov 26
Last Quarter
Dec 3
New

Hourly Weather History & Observations

Time (AEDT) Temp. Dew Point Humidity Pressure Visibility Wind Dir Wind Speed Gust Speed Precip Events Conditions
12:00 AM 55 °F 48 °F 69% 30.15 in 25 mi North 6.9 mph - -   Partly Cloudy
12:00 AM 55.4 °F 48.2 °F 77% 30.15 in - North 6.9 mph - N/A   Clear
12:30 AM 53.6 °F 46.4 °F 77% 30.12 in - North 9.2 mph - N/A   Clear
1:00 AM 52 °F 46 °F 74% 30.13 in - North 11.5 mph - -  
1:00 AM 51.8 °F 46.4 °F 82% 30.12 in - North 11.5 mph - N/A   Clear
1:30 AM 51.8 °F 44.6 °F 76% 30.12 in - North 10.4 mph - N/A   Clear
2:00 AM 51 °F 43 °F 67% 30.10 in - North 16.1 mph - -  
2:00 AM 51.8 °F 42.8 °F 71% 30.09 in - North 16.1 mph - N/A   Clear
2:30 AM 51.8 °F 42.8 °F 71% 30.09 in - North 16.1 mph - N/A   Clear
3:00 AM 55.4 °F 41.0 °F 58% 30.09 in - North 15.0 mph - N/A   Clear
3:30 AM 55.4 °F 41.0 °F 58% 30.09 in - North 13.8 mph - N/A   Clear
4:00 AM 54 °F 40 °F 48% 30.08 in - North 15.0 mph - -  
4:00 AM 53.6 °F 39.2 °F 58% 30.06 in - North 15.0 mph - N/A   Clear
4:30 AM 51.8 °F 41.0 °F 67% 30.06 in - North 11.5 mph - N/A   Clear
5:00 AM 56 °F 38 °F 38% 30.06 in - North 13.8 mph - -  
5:00 AM 57.2 °F 37.4 °F 48% 30.04 in - North 13.8 mph - N/A   Clear
5:30 AM 59.0 °F 35.6 °F 42% 30.04 in - North 19.6 mph - N/A   Clear
6:00 AM 57 °F 37 °F 36% 30.06 in 25 mi North 15.0 mph - -   Partly Cloudy
6:00 AM 57.2 °F 37.4 °F 48% 30.06 in - North 15.0 mph - N/A   Clear
6:30 AM 55.4 °F 37.4 °F 51% 30.06 in - NNW 15.0 mph - N/A   Clear
7:00 AM 58 °F 37 °F 34% 30.08 in - NNW 15.0 mph - -  
7:00 AM 57.2 °F 37.4 °F 48% 30.06 in - NNW 15.0 mph - N/A   Clear
7:30 AM 60.8 °F 37.4 °F 42% 30.09 in - North 13.8 mph - N/A   Clear
8:00 AM 63 °F 39 °F 29% 30.09 in - North 12.7 mph - -  
8:00 AM 62.6 °F 39.2 °F 42% 30.09 in - North 12.7 mph - N/A   Clear
8:30 AM 66.2 °F 37.4 °F 35% 30.09 in - North 16.1 mph - N/A   Clear
9:00 AM 68 °F 36 °F 20% 30.08 in 25 mi North 19.6 mph - -   Partly Cloudy
9:00 AM 68.0 °F 35.6 °F 30% 30.06 in - North 19.6 mph - N/A   Clear
9:30 AM 69.8 °F 37.4 °F 31% 30.06 in - North 21.9 mph 33.4 mph N/A   Clear
10:00 AM 71 °F 39 °F 20% 30.05 in - North 24.2 mph - -  
10:00 AM 71.6 °F 39.2 °F 31% 30.04 in - North 24.2 mph - N/A   Clear
10:35 AM 73.4 °F 39.2 °F 29% 30.04 in - North 24.2 mph 35.7 mph N/A   Clear
11:00 AM 74 °F 40 °F 18% 30.05 in - North 23.0 mph - -  
11:00 AM 75.2 °F 39.2 °F 27% 30.04 in - North 23.0 mph - N/A   Clear
11:30 AM 77.0 °F 41.0 °F 28% 30.04 in - North 24.2 mph - N/A   Clear
12:00 PM 78 °F 39 °F 15% 30.02 in 19 mi North 23.0 mph - -   Partly Cloudy
12:00 PM 78.8 °F 39.2 °F 24% 30.01 in - North 23.0 mph - N/A   Clear
12:30 PM 78.8 °F 39.2 °F 24% 30.01 in - North 21.9 mph - N/A   Clear
1:00 PM 81 °F 39 °F 13% 30.00 in - North 23.0 mph - -  
1:00 PM 80.6 °F 39.2 °F 23% 29.98 in - North 23.0 mph - N/A   Clear
1:24 PM 82.4 °F 37.4 °F 20% 29.98 in - North 21.9 mph 34.5 mph N/A   Clear
1:30 PM 84.2 °F 35.6 °F 18% 29.98 in - North 21.9 mph 34.5 mph N/A   Clear
2:00 PM 82 °F 32 °F 8% 29.97 in - North 24.2 mph - -  
2:00 PM 82.4 °F 32.0 °F 16% 29.98 in - North 24.2 mph - N/A   Clear
2:24 PM 84.2 °F 33.8 °F 16% 29.95 in - NNW 19.6 mph 33.4 mph N/A   Clear
2:30 PM 84.2 °F 33.8 °F 16% 29.95 in - NNW 20.7 mph 33.4 mph N/A   Clear
3:00 PM 84 °F 34 °F 9% 29.95 in 19 mi North 23.0 mph - -   Partly Cloudy
3:00 PM 84.2 °F 33.8 °F 16% 29.95 in - North 23.0 mph - N/A   Clear
3:30 PM 84.2 °F 35.6 °F 18% 29.92 in - North 21.9 mph - N/A   Clear
4:00 PM 84 °F 33 °F 8% 29.92 in - North 21.9 mph - -  
4:00 PM 84.2 °F 32.0 °F 15% 29.92 in - North 21.9 mph - N/A   Clear
4:30 PM 84.2 °F 32.0 °F 15% 29.92 in - NNW 18.4 mph - N/A   Clear
5:00 PM 85 °F 32 °F 7% 29.90 in - North 19.6 mph - -  
5:00 PM 84.2 °F 32.0 °F 15% 29.89 in - North 19.6 mph - N/A   Clear
5:30 PM 84.2 °F 30.2 °F 14% 29.89 in - NNW 18.4 mph - N/A   Clear
6:00 PM 84 °F 35 °F 9% 29.89 in 19 mi North 15.0 mph - -   Partly Cloudy
6:00 PM 84.2 °F 35.6 °F 18% 29.89 in - North 15.0 mph - N/A   Clear
6:30 PM 82.4 °F 39.2 °F 21% 29.89 in - North 12.7 mph - N/A   Clear
7:00 PM 81 °F 39 °F 13% 29.88 in - North 12.7 mph - -  
7:00 PM 80.6 °F 39.2 °F 23% 29.89 in - North 12.7 mph - N/A   Clear
7:30 PM 78.8 °F 39.2 °F 24% 29.89 in - NNE 10.4 mph - N/A   Clear
8:00 PM 75 °F 43 °F 21% 29.89 in - NE 9.2 mph - -  
8:00 PM 75.2 °F 42.8 °F 31% 29.89 in - NE 9.2 mph - N/A   Clear
8:30 PM 71.6 °F 42.8 °F 35% 29.89 in - NNE 9.2 mph - N/A   Clear
9:00 PM 67 °F 43 °F 31% 29.90 in 19 mi North 8.1 mph - -   Partly Cloudy
9:00 PM 68.0 °F 42.8 °F 40% 29.89 in - North 8.1 mph - N/A   Clear
9:30 PM 66.2 °F 44.6 °F 46% 29.89 in - North 10.4 mph - N/A   Clear
10:00 PM 64 °F 44 °F 37% 29.89 in - North 12.7 mph - -  
10:00 PM 64.4 °F 44.6 °F 49% 29.89 in - North 12.7 mph - N/A   Clear
10:30 PM 66.2 °F 42.8 °F 43% 29.89 in - North 12.7 mph - N/A   Clear
11:00 PM 67 °F 39 °F 25% 29.89 in - North 10.4 mph - -  
11:00 PM 68.0 °F 39.2 °F 35% 29.89 in - North 10.4 mph - N/A   Clear
11:30 PM 69.8 °F 37.4 °F 31% 29.86 in - North 15.0 mph - N/A   Clear